User: anonymous   Login
Location: ??
(35.5052°N, 139.7262°E)
Time: 09:54:38
(UTC+00:00)
Language:

H-2A R/B - Orbit

View from above orbital plane
View from above orbital plane
View from above satellite
View from above satellite

Ground track
Ground track

The orbit data is extracted from the following two-line orbital elements,

1 39771U 14029F   21267.69200003  .00000755  00000-0  76469-4 0  9994
2 39771  98.1583 153.3467 0017317 154.2535 205.9549 14.94008653399753
Epoch (UTC): 24 September 2021 16:36:28
Eccentricity: 0.0017317
inclination: 98.1583°
perigee height: 573 km
apogee height: 597 km
right ascension of ascending node: 153.3467°
argument of perigee: 154.2535°
revolutions per day: 14.94008653
mean anomaly at epoch: 205.9549°
orbit number at epoch: 39975

The dashed part of the orbit path shows where the satellite is in the earth's shadow,  

DLR